Time,TemperatureF,DewpointF,PressureIn,WindDirection,WindDirectionDegrees,WindSpeedMPH,WindSpeedGustMPH,Humidity,HourlyPrecipIn,Conditions,Clouds,dailyrainin,SoftwareType,DateUTC
2013-09-29 00:02:00,28.9,22.3,31.86,West,270,2.0,3.0,76,0.00,,,0.00,meteohub,2013-09-29 06:02:00,
2013-09-29 00:07:00,28.9,22.3,31.86,West,270,2.0,3.0,76,0.00,,,0.00,meteohub,2013-09-29 06:07:00,
2013-09-29 00:12:00,28.8,22.1,31.85,SW,225,0.0,3.0,76,0.00,,,0.00,meteohub,2013-09-29 06:12:00,
2013-09-29 00:17:00,28.8,22.1,31.86,SW,225,2.0,2.0,76,0.00,,,0.00,meteohub,2013-09-29 06:17:00,
2013-09-29 00:22:00,28.6,21.9,31.85,West,270,2.0,2.0,76,0.00,,,0.00,meteohub,2013-09-29 06:22:00,
2013-09-29 00:27:00,28.6,21.9,31.85,SW,225,2.0,2.0,76,0.00,,,0.00,meteohub,2013-09-29 06:27:00,
2013-09-29 00:32:00,28.4,21.7,31.85,SW,225,1.0,2.0,76,0.00,,,0.00,meteohub,2013-09-29 06:32:00,
2013-09-29 00:37:00,28.2,20.3,31.86,SW,225,2.0,2.0,72,0.00,,,0.00,meteohub,2013-09-29 06:37:00,
2013-09-29 00:42:00,28.2,20.3,31.85,NW,315,2.0,2.0,72,0.00,,,0.00,meteohub,2013-09-29 06:42:00,
2013-09-29 00:47:00,28.0,20.1,31.86,NW,315,1.0,2.0,72,0.00,,,0.00,meteohub,2013-09-29 06:47:00,
2013-09-29 00:52:00,27.9,19.9,31.85,West,270,1.0,2.0,72,0.00,,,0.00,meteohub,2013-09-29 06:52:00,
2013-09-29 00:57:00,27.9,20.3,31.85,West,270,2.0,2.0,73,0.00,,,0.00,meteohub,2013-09-29 06:57:00,
2013-09-29 01:02:00,27.9,20.3,31.85,SW,225,0.0,2.0,73,0.00,,,0.00,meteohub,2013-09-29 07:02:00,
2013-09-29 01:07:00,27.7,20.1,31.86,SW,225,2.0,2.0,73,0.00,,,0.00,meteohub,2013-09-29 07:07:00,
2013-09-29 01:12:00,27.7,20.1,31.86,West,270,2.0,2.0,73,0.00,,,0.00,meteohub,2013-09-29 07:12:00,
2013-09-29 01:17:00,27.5,19.9,31.85,SW,225,1.0,2.0,73,0.00,,,0.00,meteohub,2013-09-29 07:17:00,
2013-09-29 01:22:00,27.3,19.8,31.85,SW,225,2.0,2.0,73,0.00,,,0.00,meteohub,2013-09-29 07:22:00,
2013-09-29 01:27:00,27.1,19.6,31.85,South,180,2.0,2.0,73,0.00,,,0.00,meteohub,2013-09-29 07:27:00,
2013-09-29 01:32:00,27.1,19.6,31.86,SW,225,2.0,2.0,73,0.00,,,0.00,meteohub,2013-09-29 07:32:00,
2013-09-29 01:37:00,27.1,19.6,31.86,West,270,1.0,3.0,73,0.00,,,0.00,meteohub,2013-09-29 07:37:00,
2013-09-29 01:42:00,27.1,19.6,31.86,West,270,0.0,3.0,73,0.00,,,0.00,meteohub,2013-09-29 07:42:00,
2013-09-29 01:47:00,27.0,19.4,31.86,SW,225,2.0,3.0,73,0.00,,,0.00,meteohub,2013-09-29 07:47:00,
2013-09-29 01:52:00,27.0,19.4,31.85,South,180,2.0,2.0,73,0.00,,,0.00,meteohub,2013-09-29 07:52:00,
2013-09-29 01:57:00,27.0,19.8,31.86,NW,315,2.0,2.0,74,0.00,,,0.00,meteohub,2013-09-29 07:57:00,
2013-09-29 02:02:00,26.8,19.6,31.86,NW,315,1.0,2.0,74,0.00,,,0.00,meteohub,2013-09-29 08:02:00,
2013-09-29 02:07:00,26.8,19.6,31.86,NW,315,1.0,2.0,74,0.00,,,0.00,meteohub,2013-09-29 08:07:00,
2013-09-29 02:12:00,26.4,19.6,31.86,SE,135,1.0,2.0,75,0.00,,,0.00,meteohub,2013-09-29 08:12:00,
2013-09-29 02:17:00,26.4,19.6,31.85,SE,135,2.0,2.0,75,0.00,,,0.00,meteohub,2013-09-29 08:17:00,
2013-09-29 02:22:00,26.2,19.4,31.86,West,270,2.0,2.0,75,0.00,,,0.00,meteohub,2013-09-29 08:22:00,
2013-09-29 02:27:00,26.2,19.8,31.86,South,180,1.0,3.0,76,0.00,,,0.00,meteohub,2013-09-29 08:27:00,
2013-09-29 02:32:00,26.2,19.8,31.86,West,270,2.0,3.0,76,0.00,,,0.00,meteohub,2013-09-29 08:32:00,
2013-09-29 02:37:00,26.2,19.8,31.86,West,270,3.0,3.0,76,0.00,,,0.00,meteohub,2013-09-29 08:37:00,
2013-09-29 02:42:00,26.1,19.6,31.85,West,270,2.0,3.0,76,0.00,,,0.00,meteohub,2013-09-29 08:42:00,
2013-09-29 02:47:00,26.1,19.6,31.85,East,90,2.0,4.0,76,0.00,,,0.00,meteohub,2013-09-29 08:47:00,
2013-09-29 02:52:00,26.1,19.6,31.85,NW,315,0.0,4.0,76,0.00,,,0.00,meteohub,2013-09-29 08:52:00,
2013-09-29 02:57:00,25.9,19.4,31.85,West,270,3.0,4.0,76,0.00,,,0.00,meteohub,2013-09-29 08:57:00,
2013-09-29 03:02:00,25.9,19.4,31.85,SW,225,2.0,3.0,76,0.00,,,0.00,meteohub,2013-09-29 09:02:00,
2013-09-29 03:07:00,25.7,19.2,31.85,SW,225,0.0,3.0,76,0.00,,,0.00,meteohub,2013-09-29 09:07:00,
2013-09-29 03:12:00,25.5,19.0,31.85,SW,225,2.0,3.0,76,0.00,,,0.00,meteohub,2013-09-29 09:12:00,
2013-09-29 03:17:00,25.5,19.4,31.85,West,270,2.0,2.0,77,0.00,,,0.00,meteohub,2013-09-29 09:17:00,
2013-09-29 03:22:00,25.5,19.4,31.85,SW,225,2.0,2.0,77,0.00,,,0.00,meteohub,2013-09-29 09:22:00,
2013-09-29 03:27:00,25.5,19.4,31.85,NW,315,2.0,2.0,77,0.00,,,0.00,meteohub,2013-09-29 09:27:00,
2013-09-29 03:32:00,25.5,19.4,31.85,NW,315,1.0,2.0,77,0.00,,,0.00,meteohub,2013-09-29 09:32:00,
2013-09-29 03:37:00,25.3,18.9,31.85,West,270,2.0,2.0,76,0.00,,,0.00,meteohub,2013-09-29 09:37:00,
2013-09-29 03:42:00,25.3,18.9,31.85,West,270,2.0,2.0,76,0.00,,,0.00,meteohub,2013-09-29 09:42:00,
2013-09-29 03:47:00,25.2,18.7,31.85,SW,225,2.0,2.0,76,0.00,,,0.00,meteohub,2013-09-29 09:47:00,
2013-09-29 03:52:00,25.2,18.7,31.85,West,270,2.0,2.0,76,0.00,,,0.00,meteohub,2013-09-29 09:52:00,
2013-09-29 03:57:00,25.2,19.0,31.85,SW,225,2.0,2.0,77,0.00,,,0.00,meteohub,2013-09-29 09:57:00,
2013-09-29 04:02:00,25.2,19.0,31.85,NW,315,2.0,2.0,77,0.00,,,0.00,meteohub,2013-09-29 10:02:00,
2013-09-29 04:07:00,25.2,19.0,31.85,NW,315,2.0,2.0,77,0.00,,,0.00,meteohub,2013-09-29 10:07:00,
2013-09-29 04:12:00,25.2,18.7,31.85,SW,225,2.0,2.0,76,0.00,,,0.00,meteohub,2013-09-29 10:12:00,
2013-09-29 04:17:00,25.2,18.7,31.85,SW,225,2.0,2.0,76,0.00,,,0.00,meteohub,2013-09-29 10:17:00,
2013-09-29 04:22:00,25.2,18.7,31.85,NW,315,1.0,2.0,76,0.00,,,0.00,meteohub,2013-09-29 10:22:00,
2013-09-29 04:27:00,25.5,19.0,31.85,SW,225,2.0,2.0,76,0.00,,,0.00,meteohub,2013-09-29 10:27:00,
2013-09-29 04:32:00,25.3,18.5,31.85,SW,225,2.0,2.0,75,0.00,,,0.00,meteohub,2013-09-29 10:32:00,
2013-09-29 04:37:00,25.2,18.3,31.85,South,180,1.0,2.0,75,0.00,,,0.00,meteohub,2013-09-29 10:37:00,
2013-09-29 04:42:00,25.2,18.3,31.85,SW,225,1.0,2.0,75,0.00,,,0.00,meteohub,2013-09-29 10:42:00,
2013-09-29 04:47:00,25.0,18.1,31.85,NW,315,1.0,2.0,75,0.00,,,0.00,meteohub,2013-09-29 10:47:00,
2013-09-29 04:52:00,25.0,18.1,31.85,SW,225,2.0,2.0,75,0.00,,,0.00,meteohub,2013-09-29 10:52:00,
2013-09-29 04:57:00,24.8,18.0,31.85,SW,225,2.0,2.0,75,0.00,,,0.00,meteohub,2013-09-29 10:57:00,
2013-09-29 05:02:00,24.8,18.3,31.85,South,180,2.0,2.0,76,0.00,,,0.00,meteohub,2013-09-29 11:02:00,
2013-09-29 05:07:00,24.8,18.3,31.85,West,270,2.0,2.0,76,0.00,,,0.00,meteohub,2013-09-29 11:07:00,
2013-09-29 05:12:00,24.8,18.3,31.85,West,270,2.0,2.0,76,0.00,,,0.00,meteohub,2013-09-29 11:12:00,
2013-09-29 05:17:00,24.6,18.5,31.85,West,270,2.0,2.0,77,0.00,,,0.00,meteohub,2013-09-29 11:17:00,
2013-09-29 05:22:00,24.8,18.3,31.85,West,270,2.0,2.0,76,0.00,,,0.00,meteohub,2013-09-29 11:22:00,
2013-09-29 05:27:00,24.6,18.5,31.85,South,180,1.0,2.0,77,0.00,,,0.00,meteohub,2013-09-29 11:27:00,
2013-09-29 05:32:00,24.8,18.3,31.85,SW,225,1.0,2.0,76,0.00,,,0.00,meteohub,2013-09-29 11:32:00,
2013-09-29 05:37:00,25.0,18.5,31.85,SW,225,2.0,2.0,76,0.00,,,0.00,meteohub,2013-09-29 11:37:00,
2013-09-29 05:42:00,25.2,18.3,31.85,SW,225,1.0,2.0,75,0.00,,,0.00,meteohub,2013-09-29 11:42:00,
2013-09-29 05:47:00,25.3,18.5,31.85,SW,225,2.0,2.0,75,0.00,,,0.00,meteohub,2013-09-29 11:47:00,
2013-09-29 05:52:00,25.9,18.7,31.85,NW,315,3.0,3.0,74,0.00,,,0.00,meteohub,2013-09-29 11:52:00,
2013-09-29 05:57:00,26.1,18.9,31.85,SW,225,2.0,3.0,74,0.00,,,0.00,meteohub,2013-09-29 11:57:00,
2013-09-29 06:02:00,26.1,18.7,31.85,SW,225,2.0,3.0,73,0.00,,,0.00,meteohub,2013-09-29 12:02:00,
2013-09-29 06:07:00,26.1,18.7,31.85,SW,225,2.0,3.0,73,0.00,,,0.00,meteohub,2013-09-29 12:07:00,
2013-09-29 06:12:00,26.4,18.7,31.85,SW,225,2.0,4.0,72,0.00,,,0.00,meteohub,2013-09-29 12:12:00,
2013-09-29 06:17:00,26.6,18.1,31.85,West,270,2.0,4.0,70,0.00,,,0.00,meteohub,2013-09-29 12:17:00,
2013-09-29 06:22:00,26.6,17.8,31.85,NW,315,2.0,4.0,69,0.00,,,0.00,meteohub,2013-09-29 12:22:00,
2013-09-29 06:27:00,26.6,17.1,31.85,SW,225,2.0,2.0,67,0.00,,,0.00,meteohub,2013-09-29 12:27:00,
2013-09-29 06:32:00,26.6,17.1,31.85,SW,225,2.0,2.0,67,0.00,,,0.00,meteohub,2013-09-29 12:32:00,
2013-09-29 06:37:00,26.4,17.2,31.85,SW,225,2.0,2.0,68,0.00,,,0.00,meteohub,2013-09-29 12:37:00,
2013-09-29 06:42:00,26.6,17.1,31.85,West,270,2.0,4.0,67,0.00,,,0.00,meteohub,2013-09-29 12:42:00,
2013-09-29 06:47:00,26.8,16.9,31.85,SW,225,2.0,4.0,66,0.00,,,0.00,meteohub,2013-09-29 12:47:00,
2013-09-29 06:52:00,26.8,16.5,31.85,South,180,1.0,4.0,65,0.00,,,0.00,meteohub,2013-09-29 12:52:00,
2013-09-29 06:57:00,26.6,16.7,31.85,West,270,2.0,4.0,66,0.00,,,0.00,meteohub,2013-09-29 12:57:00,
2013-09-29 07:02:00,26.4,16.9,31.86,SW,225,3.0,3.0,67,0.00,,,0.00,meteohub,2013-09-29 13:02:00,
2013-09-29 07:07:00,26.2,16.7,31.86,West,270,3.0,3.0,67,0.00,,,0.00,meteohub,2013-09-29 13:07:00,
2013-09-29 07:12:00,26.2,16.5,31.85,NW,315,0.0,3.0,66,0.00,,,0.00,meteohub,2013-09-29 13:12:00,
2013-09-29 07:17:00,26.2,16.5,31.85,South,180,2.0,3.0,66,0.00,,,0.00,meteohub,2013-09-29 13:17:00,
2013-09-29 07:22:00,26.1,16.3,31.85,NW,315,1.0,3.0,66,0.00,,,0.00,meteohub,2013-09-29 13:22:00,
2013-09-29 07:27:00,25.9,16.5,31.85,NW,315,2.0,2.0,67,0.00,,,0.00,meteohub,2013-09-29 13:27:00,
2013-09-29 07:32:00,25.7,16.5,31.85,South,180,0.0,3.0,68,0.00,,,0.00,meteohub,2013-09-29 13:32:00,
2013-09-29 07:37:00,25.9,16.7,31.86,SW,225,0.0,3.0,68,0.00,,,0.00,meteohub,2013-09-29 13:37:00,
2013-09-29 07:42:00,26.2,17.1,31.86,South,180,2.0,2.0,68,0.00,,,0.00,meteohub,2013-09-29 13:42:00,
2013-09-29 07:47:00,26.6,17.1,31.86,SE,135,1.0,2.0,67,0.00,,,0.00,meteohub,2013-09-29 13:47:00,
2013-09-29 07:52:00,27.3,17.8,31.86,NW,315,2.0,2.0,67,0.00,,,0.00,meteohub,2013-09-29 13:52:00,
2013-09-29 07:57:00,27.9,18.0,31.86,South,180,1.0,2.0,66,0.00,,,0.00,meteohub,2013-09-29 13:57:00,
2013-09-29 08:02:00,28.4,19.9,31.86,South,180,1.0,2.0,70,0.00,,,0.00,meteohub,2013-09-29 14:02:00,
2013-09-29 08:07:00,29.7,21.4,31.86,West,270,1.0,2.0,71,0.00,,,0.00,meteohub,2013-09-29 14:07:00,
2013-09-29 08:12:00,30.7,22.1,31.86,NE,45,2.0,2.0,70,0.00,,,0.00,meteohub,2013-09-29 14:12:00,
2013-09-29 08:17:00,31.8,22.8,31.86,NE,45,2.0,2.0,69,0.00,,,0.00,meteohub,2013-09-29 14:17:00,
2013-09-29 08:22:00,33.4,23.4,31.86,South,180,0.0,2.0,66,0.00,,,0.00,meteohub,2013-09-29 14:22:00,
2013-09-29 08:28:00,34.9,23.2,31.86,South,180,1.0,2.0,62,0.00,,,0.00,meteohub,2013-09-29 14:28:00,
2013-09-29 08:33:00,37.2,23.0,31.86,ESE,113,4.0,4.0,56,0.00,,,0.00,meteohub,2013-09-29 14:33:00,
2013-09-29 08:38:00,39.7,24.4,31.85,North,0,2.0,4.0,54,0.00,,,0.00,meteohub,2013-09-29 14:38:00,
2013-09-29 08:43:00,41.9,23.7,31.85,SE,135,0.0,4.0,48,0.00,,,0.00,meteohub,2013-09-29 14:43:00,
2013-09-29 08:48:00,43.3,22.8,31.84,NE,45,2.0,4.0,44,0.00,,,0.00,meteohub,2013-09-29 14:48:00,
2013-09-29 08:54:00,44.8,23.0,31.85,NW,315,2.0,4.0,42,0.00,,,0.00,meteohub,2013-09-29 14:54:00,
2013-09-29 08:59:00,45.3,22.5,31.85,SW,225,2.0,4.0,40,0.00,,,0.00,meteohub,2013-09-29 14:59:00,
2013-09-29 09:04:00,46.2,20.7,31.84,North,0,2.0,3.0,36,0.00,,,0.00,meteohub,2013-09-29 15:04:00,
2013-09-29 09:10:00,47.1,21.6,31.85,South,180,1.0,4.0,36,0.00,,,0.00,meteohub,2013-09-29 15:10:00,
2013-09-29 09:15:00,47.8,20.1,31.85,North,0,2.0,4.0,33,0.00,,,0.00,meteohub,2013-09-29 15:15:00,
2013-09-29 09:20:00,48.4,21.4,31.85,NE,45,3.0,6.0,34,0.00,,,0.00,meteohub,2013-09-29 15:20:00,
2013-09-29 09:25:00,48.7,19.4,31.85,NW,315,4.0,6.0,31,0.00,,,0.00,meteohub,2013-09-29 15:25:00,
2013-09-29 09:31:00,49.1,19.0,31.85,NW,315,2.0,5.0,30,0.00,,,0.00,meteohub,2013-09-29 15:31:00,
2013-09-29 09:36:00,49.6,18.7,31.85,East,90,3.0,5.0,29,0.00,,,0.00,meteohub,2013-09-29 15:36:00,
2013-09-29 09:41:00,50.4,19.2,31.85,NE,45,4.0,8.0,29,0.00,,,0.00,meteohub,2013-09-29 15:41:00,
2013-09-29 09:46:00,50.9,19.8,31.85,NE,45,5.0,8.0,29,0.00,,,0.00,meteohub,2013-09-29 15:46:00,
2013-09-29 09:51:00,51.3,17.6,31.84,ENE,68,4.0,5.0,26,0.00,,,0.00,meteohub,2013-09-29 15:51:00,
2013-09-29 09:57:00,52.0,18.1,31.85,SE,135,5.0,7.0,26,0.00,,,0.00,meteohub,2013-09-29 15:57:00,
2013-09-29 10:02:00,52.3,17.6,31.84,North,0,5.0,7.0,25,0.00,,,0.00,meteohub,2013-09-29 16:02:00,
2013-09-29 10:07:00,52.3,17.6,31.84,North,0,5.0,7.0,25,0.00,,,0.00,meteohub,2013-09-29 16:07:00,
2013-09-29 10:12:00,53.8,16.9,31.84,NE,45,4.0,5.0,23,0.00,,,0.00,meteohub,2013-09-29 16:12:00,
2013-09-29 10:17:00,55.0,16.9,31.84,ENE,68,7.0,7.0,22,0.00,,,0.00,meteohub,2013-09-29 16:17:00,
2013-09-29 10:22:00,55.6,20.3,31.84,North,0,5.0,7.0,25,0.00,,,0.00,meteohub,2013-09-29 16:22:00,
2013-09-29 10:27:00,55.9,20.7,31.84,East,90,4.0,7.0,25,0.00,,,0.00,meteohub,2013-09-29 16:27:00,
2013-09-29 10:32:00,56.3,19.9,31.84,South,180,4.0,8.0,24,0.00,,,0.00,meteohub,2013-09-29 16:32:00,
2013-09-29 10:37:00,56.3,19.0,31.84,East,90,8.0,8.0,23,0.00,,,0.00,meteohub,2013-09-29 16:37:00,
2013-09-29 10:42:00,56.1,18.9,31.84,SE,135,5.0,8.0,23,0.00,,,0.00,meteohub,2013-09-29 16:42:00,
2013-09-29 10:47:00,55.8,18.5,31.84,SE,135,4.0,9.0,23,0.00,,,0.00,meteohub,2013-09-29 16:47:00,
2013-09-29 10:52:00,56.8,19.4,31.84,East,90,5.0,9.0,23,0.00,,,0.00,meteohub,2013-09-29 16:52:00,
2013-09-29 10:57:00,57.9,21.4,31.84,SE,135,8.0,9.0,24,0.00,,,0.00,meteohub,2013-09-29 16:57:00,
2013-09-29 11:02:00,58.1,21.6,31.84,ESE,113,7.0,8.0,24,0.00,,,0.00,meteohub,2013-09-29 17:02:00,
2013-09-29 11:07:00,59.0,20.1,31.83,NE,45,5.0,11.0,22,0.00,,,0.00,meteohub,2013-09-29 17:07:00,
2013-09-29 11:12:00,58.5,20.8,31.84,NW,315,2.0,11.0,23,0.00,,,0.00,meteohub,2013-09-29 17:12:00,
2013-09-29 11:17:00,59.0,20.1,31.84,North,0,3.0,8.0,22,0.00,,,0.00,meteohub,2013-09-29 17:17:00,
2013-09-29 11:22:00,59.7,20.8,31.84,South,180,2.0,8.0,22,0.00,,,0.00,meteohub,2013-09-29 17:22:00,
2013-09-29 11:27:00,60.1,19.9,31.83,SSW,203,10.0,10.0,21,0.00,,,0.00,meteohub,2013-09-29 17:27:00,
2013-09-29 11:32:00,60.1,19.9,31.83,South,180,6.0,10.0,21,0.00,,,0.00,meteohub,2013-09-29 17:32:00,
2013-09-29 11:37:00,59.9,19.9,31.83,NW,315,4.0,10.0,21,0.00,,,0.00,meteohub,2013-09-29 17:37:00,
2013-09-29 11:42:00,59.7,19.8,31.83,East,90,3.0,10.0,21,0.00,,,0.00,meteohub,2013-09-29 17:42:00,
2013-09-29 11:47:00,60.3,20.1,31.83,West,270,7.0,9.0,21,0.00,,,0.00,meteohub,2013-09-29 17:47:00,
2013-09-29 11:52:00,60.6,20.5,31.82,SW,225,4.0,11.0,21,0.00,,,0.00,meteohub,2013-09-29 17:52:00,
2013-09-29 11:57:00,60.8,19.4,31.82,South,180,3.0,11.0,20,0.00,,,0.00,meteohub,2013-09-29 17:57:00,
2013-09-29 12:02:00,61.2,19.8,31.82,NW,315,2.0,11.0,20,0.00,,,0.00,meteohub,2013-09-29 18:02:00,
2013-09-29 12:07:00,61.2,19.8,31.82,NW,315,2.0,5.0,20,0.00,,,0.00,meteohub,2013-09-29 18:07:00,
2013-09-29 12:12:00,60.8,19.4,31.82,SE,135,4.0,9.0,20,0.00,,,0.00,meteohub,2013-09-29 18:12:00,
2013-09-29 12:17:00,61.0,19.6,31.82,West,270,2.0,9.0,20,0.00,,,0.00,meteohub,2013-09-29 18:17:00,
2013-09-29 12:22:00,61.0,19.6,31.82,East,90,4.0,9.0,20,0.00,,,0.00,meteohub,2013-09-29 18:22:00,
2013-09-29 12:27:00,61.3,19.9,31.82,SE,135,4.0,7.0,20,0.00,,,0.00,meteohub,2013-09-29 18:27:00,
2013-09-29 12:32:00,61.5,20.1,31.82,NW,315,4.0,8.0,20,0.00,,,0.00,meteohub,2013-09-29 18:32:00,
2013-09-29 12:37:00,61.2,19.8,31.82,NE,45,4.0,8.0,20,0.00,,,0.00,meteohub,2013-09-29 18:37:00,
2013-09-29 12:42:00,60.6,20.5,31.81,SE,135,8.0,8.0,21,0.00,,,0.00,meteohub,2013-09-29 18:42:00,
2013-09-29 12:47:00,61.0,20.8,31.81,SE,135,4.0,8.0,21,0.00,,,0.00,meteohub,2013-09-29 18:47:00,
2013-09-29 12:52:00,61.9,20.3,31.81,North,0,6.0,8.0,20,0.00,,,0.00,meteohub,2013-09-29 18:52:00,
2013-09-29 12:57:00,62.2,20.7,31.81,East,90,4.0,8.0,20,0.00,,,0.00,meteohub,2013-09-29 18:57:00,
2013-09-29 13:02:00,61.9,20.3,31.81,East,90,5.0,7.0,20,0.00,,,0.00,meteohub,2013-09-29 19:02:00,
2013-09-29 13:07:00,62.1,20.5,31.80,NE,45,4.0,7.0,20,0.00,,,0.00,meteohub,2013-09-29 19:07:00,
2013-09-29 13:12:00,62.6,19.8,31.80,South,180,6.0,6.0,19,0.00,,,0.00,meteohub,2013-09-29 19:12:00,
2013-09-29 13:17:00,62.8,19.9,31.80,East,90,4.0,7.0,19,0.00,,,0.00,meteohub,2013-09-29 19:17:00,
2013-09-29 13:22:00,63.0,20.1,31.80,NE,45,3.0,8.0,19,0.00,,,0.00,meteohub,2013-09-29 19:22:00,
2013-09-29 13:27:00,63.0,20.1,31.80,East,90,4.0,8.0,19,0.00,,,0.00,meteohub,2013-09-29 19:27:00,
2013-09-29 13:32:00,63.1,20.1,31.79,East,90,5.0,8.0,19,0.00,,,0.00,meteohub,2013-09-29 19:32:00,
2013-09-29 13:37:00,63.5,20.5,31.79,East,90,4.0,8.0,19,0.00,,,0.00,meteohub,2013-09-29 19:37:00,
2013-09-29 13:42:00,63.3,20.3,31.79,South,180,5.0,8.0,19,0.00,,,0.00,meteohub,2013-09-29 19:42:00,
2013-09-29 13:47:00,63.0,20.1,31.78,SSW,203,8.0,10.0,19,0.00,,,0.00,meteohub,2013-09-29 19:47:00,
2013-09-29 13:50:00,63.3,20.3,31.78,NNE,23,5.0,10.0,19,0.00,,,0.00,meteohub,2013-09-29 19:50:00,
2013-09-29 13:55:00,63.0,20.1,31.78,South,180,3.0,10.0,19,0.00,,,0.00,meteohub,2013-09-29 19:55:00,
2013-09-29 14:00:00,63.5,20.5,31.78,SE,135,7.0,10.0,19,0.00,,,0.00,meteohub,2013-09-29 20:00:00,
2013-09-29 14:05:00,63.5,20.5,31.78,SE,135,7.0,10.0,19,0.00,,,0.00,meteohub,2013-09-29 20:05:00,
2013-09-29 14:10:00,62.2,20.7,31.78,West,270,7.0,7.0,20,0.00,,,0.00,meteohub,2013-09-29 20:10:00,
2013-09-29 14:17:00,62.2,20.7,31.77,SW,225,3.0,7.0,20,0.00,,,0.00,meteohub,2013-09-29 20:17:00,
2013-09-29 14:22:00,63.1,20.1,31.78,South,180,5.0,7.0,19,0.00,,,0.00,meteohub,2013-09-29 20:22:00,
2013-09-29 14:27:00,63.3,20.3,31.78,SW,225,5.0,7.0,19,0.00,,,0.00,meteohub,2013-09-29 20:27:00,
2013-09-29 14:32:00,62.6,18.5,31.78,SW,225,4.0,7.0,18,0.00,,,0.00,meteohub,2013-09-29 20:32:00,
2013-09-29 14:37:00,62.2,19.4,31.78,West,270,6.0,7.0,19,0.00,,,0.00,meteohub,2013-09-29 20:37:00,
2013-09-29 14:42:00,62.1,20.5,31.77,East,90,6.0,12.0,20,0.00,,,0.00,meteohub,2013-09-29 20:42:00,
2013-09-29 14:47:00,61.9,20.3,31.77,West,270,9.0,12.0,20,0.00,,,0.00,meteohub,2013-09-29 20:47:00,
2013-09-29 14:52:00,62.2,19.4,31.77,West,270,6.0,9.0,19,0.00,,,0.00,meteohub,2013-09-29 20:52:00,
2013-09-29 14:57:00,62.2,19.4,31.77,South,180,6.0,10.0,19,0.00,,,0.00,meteohub,2013-09-29 20:57:00,
2013-09-29 15:02:00,63.0,18.9,31.77,SSW,203,7.0,10.0,18,0.00,,,0.00,meteohub,2013-09-29 21:02:00,
2013-09-29 15:07:00,63.3,19.0,31.77,SE,135,7.0,8.0,18,0.00,,,0.00,meteohub,2013-09-29 21:07:00,
2013-09-29 15:12:00,63.5,19.2,31.77,South,180,7.0,8.0,18,0.00,,,0.00,meteohub,2013-09-29 21:12:00,
2013-09-29 15:17:00,63.0,18.9,31.77,West,270,2.0,8.0,18,0.00,,,0.00,meteohub,2013-09-29 21:17:00,
2013-09-29 15:22:00,62.6,18.5,31.77,WNW,293,4.0,11.0,18,0.00,,,0.00,meteohub,2013-09-29 21:22:00,
2013-09-29 15:27:00,63.3,19.0,31.77,SSW,203,2.0,11.0,18,0.00,,,0.00,meteohub,2013-09-29 21:27:00,
2013-09-29 15:32:00,63.3,19.0,31.77,NW,315,7.0,7.0,18,0.00,,,0.00,meteohub,2013-09-29 21:32:00,
2013-09-29 15:37:00,63.5,19.2,31.77,NW,315,2.0,7.0,18,0.00,,,0.00,meteohub,2013-09-29 21:37:00,
2013-09-29 15:42:00,63.9,19.6,31.77,West,270,5.0,14.0,18,0.00,,,0.00,meteohub,2013-09-29 21:42:00,
2013-09-29 15:47:00,63.9,19.6,31.77,SW,225,11.0,14.0,18,0.00,,,0.00,meteohub,2013-09-29 21:47:00,
2013-09-29 15:52:00,63.5,19.2,31.77,West,270,9.0,14.0,18,0.00,,,0.00,meteohub,2013-09-29 21:52:00,
2013-09-29 15:57:00,63.3,19.0,31.77,SW,225,10.0,15.0,18,0.00,,,0.00,meteohub,2013-09-29 21:57:00,
2013-09-29 16:02:00,63.0,18.9,31.77,SW,225,7.0,15.0,18,0.00,,,0.00,meteohub,2013-09-29 22:02:00,
2013-09-29 16:07:00,63.0,18.9,31.77,SW,225,7.0,15.0,18,0.00,,,0.00,meteohub,2013-09-29 22:07:00,
2013-09-29 16:12:00,62.2,19.4,31.77,West,270,8.0,11.0,19,0.00,,,0.00,meteohub,2013-09-29 22:12:00,
2013-09-29 16:17:00,61.2,18.5,31.77,NW,315,5.0,11.0,19,0.00,,,0.00,meteohub,2013-09-29 22:17:00,
2013-09-29 16:22:00,60.3,20.1,31.77,NW,315,5.0,11.0,21,0.00,,,0.00,meteohub,2013-09-29 22:22:00,
2013-09-29 16:27:00,60.4,20.3,31.77,South,180,6.0,9.0,21,0.00,,,0.00,meteohub,2013-09-29 22:27:00,
2013-09-29 16:32:00,60.8,18.3,31.77,West,270,5.0,9.0,19,0.00,,,0.00,meteohub,2013-09-29 22:32:00,
2013-09-29 16:37:00,61.3,18.7,31.77,NW,315,4.0,12.0,19,0.00,,,0.00,meteohub,2013-09-29 22:37:00,
2013-09-29 16:42:00,61.0,18.5,31.78,NW,315,8.0,15.0,19,0.00,,,0.00,meteohub,2013-09-29 22:42:00,
2013-09-29 16:47:00,61.0,18.5,31.77,West,270,7.0,15.0,19,0.00,,,0.00,meteohub,2013-09-29 22:47:00,
2013-09-29 16:52:00,61.0,18.5,31.77,SW,225,10.0,15.0,19,0.00,,,0.00,meteohub,2013-09-29 22:52:00,
2013-09-29 16:57:00,60.8,18.3,31.78,SW,225,8.0,13.0,19,0.00,,,0.00,meteohub,2013-09-29 22:57:00,
2013-09-29 17:02:00,60.3,19.0,31.78,WSW,248,9.0,12.0,20,0.00,,,0.00,meteohub,2013-09-29 23:02:00,
2013-09-29 17:07:00,59.7,19.8,31.78,West,270,7.0,12.0,21,0.00,,,0.00,meteohub,2013-09-29 23:07:00,
2013-09-29 17:12:00,59.4,19.4,31.78,NW,315,4.0,12.0,21,0.00,,,0.00,meteohub,2013-09-29 23:12:00,
2013-09-29 17:17:00,59.0,19.0,31.78,West,270,4.0,9.0,21,0.00,,,0.00,meteohub,2013-09-29 23:17:00,
2013-09-29 17:22:00,58.8,20.1,31.78,South,180,4.0,9.0,22,0.00,,,0.00,meteohub,2013-09-29 23:22:00,
2013-09-29 17:27:00,59.2,19.2,31.78,SW,225,7.0,9.0,21,0.00,,,0.00,meteohub,2013-09-29 23:27:00,
2013-09-29 17:32:00,58.8,20.1,31.78,South,180,4.0,8.0,22,0.00,,,0.00,meteohub,2013-09-29 23:32:00,
2013-09-29 17:37:00,57.9,19.2,31.78,SW,225,6.0,9.0,22,0.00,,,0.00,meteohub,2013-09-29 23:37:00,
2013-09-29 17:42:00,57.0,19.6,31.78,SW,225,3.0,11.0,23,0.00,,,0.00,meteohub,2013-09-29 23:42:00,
2013-09-29 17:47:00,56.7,19.2,31.78,West,270,10.0,11.0,23,0.00,,,0.00,meteohub,2013-09-29 23:47:00,
2013-09-29 17:52:00,56.1,18.9,31.78,SW,225,3.0,12.0,23,0.00,,,0.00,meteohub,2013-09-29 23:52:00,
2013-09-29 17:57:00,55.8,18.5,31.78,West,270,4.0,12.0,23,0.00,,,0.00,meteohub,2013-09-29 23:57:00,
2013-09-29 18:02:00,55.6,18.3,31.78,SW,225,7.0,12.0,23,0.00,,,0.00,meteohub,2013-09-30 00:02:00,
2013-09-29 18:07:00,55.6,18.3,31.78,SW,225,7.0,7.0,23,0.00,,,0.00,meteohub,2013-09-30 00:07:00,
2013-09-29 18:12:00,54.7,15.4,31.79,NW,315,2.0,7.0,21,0.00,,,0.00,meteohub,2013-09-30 00:12:00,
2013-09-29 18:17:00,54.0,14.9,31.79,North,0,1.0,7.0,21,0.00,,,0.00,meteohub,2013-09-30 00:17:00,
2013-09-29 18:22:00,53.2,16.3,31.79,NW,315,0.0,7.0,23,0.00,,,0.00,meteohub,2013-09-30 00:22:00,
2013-09-29 18:27:00,52.0,14.4,31.79,NW,315,1.0,2.0,22,0.00,,,0.00,meteohub,2013-09-30 00:27:00,
2013-09-29 18:32:00,51.6,15.1,31.79,East,90,3.0,4.0,23,0.00,,,0.00,meteohub,2013-09-30 00:32:00,
2013-09-29 18:37:00,51.3,14.7,31.79,West,270,3.0,4.0,23,0.00,,,0.00,meteohub,2013-09-30 00:37:00,
2013-09-29 18:42:00,50.9,14.4,31.79,West,270,1.0,4.0,23,0.00,,,0.00,meteohub,2013-09-30 00:42:00,
2013-09-29 18:47:00,50.2,14.7,31.79,West,270,4.0,4.0,24,0.00,,,0.00,meteohub,2013-09-30 00:47:00,
2013-09-29 18:52:00,49.3,14.9,31.79,NW,315,2.0,4.0,25,0.00,,,0.00,meteohub,2013-09-30 00:52:00,
2013-09-29 18:57:00,48.7,14.5,31.79,West,270,4.0,4.0,25,0.00,,,0.00,meteohub,2013-09-30 00:57:00,
2013-09-29 19:02:00,48.2,14.9,31.79,South,180,2.0,4.0,26,0.00,,,0.00,meteohub,2013-09-30 01:02:00,
2013-09-29 19:07:00,47.5,15.1,31.78,NW,315,2.0,4.0,27,0.00,,,0.00,meteohub,2013-09-30 01:07:00,
2013-09-29 19:12:00,47.1,15.6,31.78,WSW,248,2.0,4.0,28,0.00,,,0.00,meteohub,2013-09-30 01:12:00,
2013-09-29 19:17:00,46.6,15.3,31.78,South,180,2.0,4.0,28,0.00,,,0.00,meteohub,2013-09-30 01:17:00,
2013-09-29 19:22:00,45.7,12.7,31.79,North,0,1.0,4.0,26,0.00,,,0.00,meteohub,2013-09-30 01:22:00,
2013-09-29 19:27:00,45.1,12.2,31.80,South,180,2.0,4.0,26,0.00,,,0.00,meteohub,2013-09-30 01:27:00,
2013-09-29 19:32:00,45.3,12.4,31.80,West,270,2.0,4.0,26,0.00,,,0.00,meteohub,2013-09-30 01:32:00,
2013-09-29 19:37:00,45.3,12.4,31.80,SW,225,2.0,4.0,26,0.00,,,0.00,meteohub,2013-09-30 01:37:00,
2013-09-29 19:42:00,45.1,13.1,31.80,SW,225,2.0,4.0,27,0.00,,,0.00,meteohub,2013-09-30 01:42:00,
2013-09-29 19:48:00,44.8,12.7,31.80,SW,225,3.0,4.0,27,0.00,,,0.00,meteohub,2013-09-30 01:48:00,
2013-09-29 19:53:00,44.6,13.5,31.80,WSW,248,4.0,5.0,28,0.00,,,0.00,meteohub,2013-09-30 01:53:00,
2013-09-29 19:58:00,44.6,13.5,31.80,SW,225,4.0,5.0,28,0.00,,,0.00,meteohub,2013-09-30 01:58:00,
2013-09-29 20:03:00,44.6,13.5,31.80,SW,225,2.0,5.0,28,0.00,,,0.00,meteohub,2013-09-30 02:03:00,
2013-09-29 20:08:00,44.6,13.5,31.80,West,270,4.0,5.0,28,0.00,,,0.00,meteohub,2013-09-30 02:08:00,
2013-09-29 20:13:00,44.1,14.5,31.80,SW,225,4.0,5.0,30,0.00,,,0.00,meteohub,2013-09-30 02:13:00,
2013-09-29 20:20:00,43.9,16.0,31.80,South,180,2.0,4.0,32,0.00,,,0.00,meteohub,2013-09-30 02:20:00,
2013-09-29 20:25:00,43.7,15.8,31.79,SW,225,1.0,5.0,32,0.00,,,0.00,meteohub,2013-09-30 02:25:00,
2013-09-29 20:30:00,43.5,16.3,31.79,West,270,0.0,5.0,33,0.00,,,0.00,meteohub,2013-09-30 02:30:00,
2013-09-29 20:35:00,43.0,15.1,31.80,SE,135,2.0,4.0,32,0.00,,,0.00,meteohub,2013-09-30 02:35:00,
2013-09-29 20:40:00,42.6,16.2,31.79,South,180,2.0,4.0,34,0.00,,,0.00,meteohub,2013-09-30 02:40:00,
2013-09-29 20:46:00,42.6,16.2,31.80,North,0,1.0,2.0,34,0.00,,,0.00,meteohub,2013-09-30 02:46:00,
2013-09-29 20:51:00,42.6,16.2,31.80,NNW,338,1.0,2.0,34,0.00,,,0.00,meteohub,2013-09-30 02:51:00,
2013-09-29 20:56:00,42.3,16.5,31.80,SW,225,1.0,2.0,35,0.00,,,0.00,meteohub,2013-09-30 02:56:00,
2013-09-29 21:01:00,41.9,17.6,31.80,West,270,2.0,2.0,37,0.00,,,0.00,meteohub,2013-09-30 03:01:00,
2013-09-29 21:06:00,41.5,18.5,31.80,West,270,2.0,2.0,39,0.00,,,0.00,meteohub,2013-09-30 03:06:00,
2013-09-29 21:11:00,41.0,18.5,31.80,South,180,2.0,2.0,40,0.00,,,0.00,meteohub,2013-09-30 03:11:00,
2013-09-29 21:17:00,40.6,18.9,31.80,North,0,2.0,2.0,41,0.00,,,0.00,meteohub,2013-09-30 03:17:00,
2013-09-29 21:22:00,40.5,19.2,31.80,SW,225,2.0,2.0,42,0.00,,,0.00,meteohub,2013-09-30 03:22:00,
2013-09-29 21:27:00,40.1,19.4,31.81,West,270,4.0,4.0,43,0.00,,,0.00,meteohub,2013-09-30 03:27:00,
2013-09-29 21:32:00,39.7,19.6,31.81,SE,135,2.0,4.0,44,0.00,,,0.00,meteohub,2013-09-30 03:32:00,
2013-09-29 21:37:00,39.7,19.6,31.81,SW,225,2.0,4.0,44,0.00,,,0.00,meteohub,2013-09-30 03:37:00,
2013-09-29 21:42:00,39.6,19.9,31.81,SW,225,2.0,4.0,45,0.00,,,0.00,meteohub,2013-09-30 03:42:00,
2013-09-29 21:47:00,39.0,19.9,31.80,SE,135,2.0,3.0,46,0.00,,,0.00,meteohub,2013-09-30 03:47:00,
2013-09-29 21:52:00,38.5,19.6,31.81,SW,225,2.0,3.0,46,0.00,,,0.00,meteohub,2013-09-30 03:52:00,
2013-09-29 21:57:00,37.9,19.0,31.80,South,180,2.0,3.0,46,0.00,,,0.00,meteohub,2013-09-30 03:57:00,
2013-09-29 22:01:00,37.9,19.6,31.80,SW,225,2.0,3.0,47,0.00,,,0.00,meteohub,2013-09-30 04:01:00,
2013-09-29 22:02:00,37.9,19.6,31.80,SW,225,2.0,3.0,47,0.00,,,0.00,meteohub,2013-09-30 04:02:00,
2013-09-29 22:03:00,37.9,19.6,31.80,SW,225,2.0,3.0,47,0.00,,,0.00,meteohub,2013-09-30 04:03:00,
2013-09-29 22:09:00,37.6,19.2,31.80,South,180,2.0,3.0,47,0.00,,,0.00,meteohub,2013-09-30 04:09:00,
2013-09-29 22:14:00,38.1,19.6,31.81,South,180,2.0,2.0,47,0.00,,,0.00,meteohub,2013-09-30 04:14:00,
2013-09-29 22:19:00,38.3,19.8,31.81,East,90,1.0,3.0,47,0.00,,,0.00,meteohub,2013-09-30 04:19:00,
2013-09-29 22:24:00,38.8,19.8,31.81,NE,45,1.0,3.0,46,0.00,,,0.00,meteohub,2013-09-30 04:24:00,
2013-09-29 22:29:00,39.7,19.6,31.81,SE,135,2.0,3.0,44,0.00,,,0.00,meteohub,2013-09-30 04:29:00,
2013-09-29 22:34:00,40.5,20.3,31.81,North,0,2.0,4.0,44,0.00,,,0.00,meteohub,2013-09-30 04:34:00,
2013-09-29 22:40:00,40.8,20.7,31.81,NW,315,2.0,4.0,44,0.00,,,0.00,meteohub,2013-09-30 04:40:00,
2013-09-29 22:45:00,41.2,18.1,31.81,NW,315,2.0,4.0,39,0.00,,,0.00,meteohub,2013-09-30 04:45:00,
2013-09-29 22:50:00,41.5,19.6,31.81,South,180,2.0,5.0,41,0.00,,,0.00,meteohub,2013-09-30 04:50:00,
2013-09-29 22:55:00,41.7,18.0,31.81,North,0,1.0,5.0,38,0.00,,,0.00,meteohub,2013-09-30 04:55:00,
2013-09-29 23:00:00,41.7,17.4,31.81,SW,225,1.0,2.0,37,0.00,,,0.00,meteohub,2013-09-30 05:00:00,
2013-09-29 23:06:00,41.5,17.8,31.81,West,270,0.0,2.0,38,0.00,,,0.00,meteohub,2013-09-30 05:06:00,
2013-09-29 23:11:00,41.5,16.5,31.81,North,0,2.0,2.0,36,0.00,,,0.00,meteohub,2013-09-30 05:11:00,
2013-09-29 23:16:00,41.5,17.2,31.81,SE,135,1.0,2.0,37,0.00,,,0.00,meteohub,2013-09-30 05:16:00,
2013-09-29 23:21:00,41.5,16.5,31.81,West,270,2.0,2.0,36,0.00,,,0.00,meteohub,2013-09-30 05:21:00,
2013-09-29 23:26:00,41.4,16.3,31.81,South,180,1.0,2.0,36,0.00,,,0.00,meteohub,2013-09-30 05:26:00,
2013-09-29 23:32:00,41.2,17.4,31.81,South,180,2.0,3.0,38,0.00,,,0.00,meteohub,2013-09-30 05:32:00,
2013-09-29 23:37:00,41.0,18.0,31.81,SW,225,4.0,4.0,39,0.00,,,0.00,meteohub,2013-09-30 05:37:00,
2013-09-29 23:42:00,41.0,18.0,31.82,SW,225,1.0,4.0,39,0.00,,,0.00,meteohub,2013-09-30 05:42:00,
2013-09-29 23:47:00,41.2,17.4,31.82,SW,225,2.0,4.0,38,0.00,,,0.00,meteohub,2013-09-30 05:47:00,
2013-09-29 23:52:00,41.2,17.4,31.82,North,0,6.0,6.0,38,0.00,,,0.00,meteohub,2013-09-30 05:52:00,
2013-09-29 23:57:00,43.2,17.4,31.82,North,0,4.0,11.0,35,0.00,,,0.00,meteohub,2013-09-30 05:57:00,